Cheraw, SC

11:26 PM EDT on October 23, 2017 (GMT -0400)
Cheraw

Weather History for KCQW - February, 2013

Change the Weather History Date:

Tuesday, February 5, 2013

  Actual Average (KFLO) Record (KFLO)
Temperature  
Mean Temperature 49 °F -  
Max Temperature 66 °F 54 °F 79 °F (2008)
Min Temperature 32 °F 34 °F 11 °F (1996)
Degree Days  
Heating Degree Days 16    
Moisture  
Dew Point 36 °F    
Average Humidity 63    
Maximum Humidity 100    
Minimum Humidity 30    
Precipitation  
Precipitation 0.00 in - - ()
Sea Level Pressure  
Sea Level Pressure 29.97 in    
Wind  
Wind Speed 10 mph (SW)    
Max Wind Speed 37 mph    
Max Gust Speed 51 mph    
Visibility 10 miles    
Events      
Averages and records for this station are not official NWS values.
T = Trace of Precipitation, MM = Missing Value Source: NWS Daily Summary

Daily Weather History Graph

Daily Weather History Graph

Search for Another Location

Airport or City:

Trip Planner

Search our weather history database for the weather conditions in past years. The results will help you decide how hot, cold, wet, or windy it might be!

Date:

Astronomy

Feb. 05, 2013 Rise Set
Actual Time 7:14 AM EST 5:53 PM EST
Civil Twilight 6:48 AM EST 6:19 PM EST
Nautical Twilight 6:18 AM EST 6:49 PM EST
Astronomical Twilight 5:48 AM EST 7:19 PM EST
Moon 2:50 AM EST (2/5) 1:13 PM EST (2/5)
Length of Visible Light 11h 31m
Length of Day
10h 38m
Waning Crescent, 27% of the Moon is Illuminated
Feb 5
Waning Crescent
Feb 10
New
Feb 17
First Quarter
Feb 25
Full
Mar 4
Last Quarter

Hourly Weather History & Observations

Time (EST) Temp. Windchill Dew Point Humidity Pressure Visibility Wind Dir Wind Speed Gust Speed Precip Events Conditions
12:15 AM 39.2 °F 34.2 °F 30.2 °F 70% 30.03 in 10.0 mi SSW 6.9 mph - N/A   Partly Cloudy
12:35 AM 39.2 °F 37.0 °F 30.2 °F 70% 30.03 in 10.0 mi SSW 3.5 mph - N/A   Partly Cloudy
12:55 AM 39.2 °F 37.0 °F 30.2 °F 70% 30.02 in 10.0 mi South 3.5 mph - N/A   Scattered Clouds
1:15 AM 37.4 °F - 30.2 °F 75% 30.01 in 10.0 mi Calm Calm - N/A   Mostly Cloudy
1:55 AM 39.2 °F 33.6 °F 32.0 °F 75% 29.99 in 10.0 mi South 8.1 mph - N/A   Mostly Cloudy
2:15 AM 39.2 °F 35.9 °F 32.0 °F 75% 29.99 in 10.0 mi South 4.6 mph - N/A   Overcast
2:35 AM 39.2 °F - 32.0 °F 75% 29.98 in 10.0 mi Calm Calm - N/A   Overcast
2:55 AM 37.4 °F - 32.0 °F 81% 29.98 in 10.0 mi Calm Calm - N/A   Overcast
3:15 AM 35.6 °F - 32.0 °F 87% 29.98 in 10.0 mi Calm Calm - N/A   Mostly Cloudy
3:35 AM 37.4 °F - 32.0 °F 81% 29.97 in 10.0 mi Calm Calm - N/A   Partly Cloudy
3:55 AM 37.4 °F - 32.0 °F 81% 29.97 in 10.0 mi Calm Calm - N/A   Clear
4:15 AM 37.4 °F 32.8 °F 32.0 °F 81% 29.97 in 10.0 mi South 5.8 mph - N/A   Clear
4:55 AM 35.6 °F 29.9 °F 32.0 °F 87% 29.96 in 10.0 mi South 6.9 mph - N/A   Clear
5:15 AM 35.6 °F 29.9 °F 32.0 °F 87% 29.97 in 10.0 mi South 6.9 mph - N/A   Clear
5:35 AM 33.8 °F - 32.0 °F 93% 29.97 in 10.0 mi Calm Calm - N/A   Clear
5:55 AM 33.8 °F 28.6 °F 32.0 °F 93% 29.98 in 10.0 mi SW 5.8 mph - N/A   Clear
6:15 AM 33.8 °F 28.6 °F 32.0 °F 93% 29.98 in 10.0 mi South 5.8 mph - N/A   Clear
6:55 AM 32.0 °F - 32.0 °F 100% 30.00 in 10.0 mi Calm Calm - N/A   Clear
7:15 AM 32.0 °F - 32.0 °F 100% 30.00 in 10.0 mi Calm Calm - N/A   Clear
7:35 AM 32.0 °F - 30.2 °F 93% 30.01 in 10.0 mi Calm Calm - N/A   Clear
7:55 AM 32.0 °F - 32.0 °F 100% 30.01 in 10.0 mi Calm Calm - N/A   Clear
8:15 AM 33.8 °F - 33.8 °F 100% 30.01 in 10.0 mi Calm Calm - N/A   Clear
8:35 AM 39.2 °F 35.9 °F 33.8 °F 81% 30.02 in 10.0 mi South 4.6 mph - N/A   Clear
8:55 AM 42.8 °F 37.5 °F 32.0 °F 66% 30.02 in 10.0 mi SW 9.2 mph 19.6 mph N/A   Clear
9:15 AM 44.6 °F 38.8 °F 32.0 °F 61% 30.03 in 10.0 mi SW 11.5 mph - N/A   Clear
9:35 AM 46.4 °F 41.1 °F 32.0 °F 57% 30.03 in 10.0 mi SW 11.5 mph 19.6 mph N/A   Clear
9:55 AM 48.2 °F - 32.0 °F 54% 30.02 in 10.0 mi SW 15.0 mph - N/A   Clear
10:15 AM 53.6 °F - 32.0 °F 44% 30.00 in 10.0 mi SSW 15.0 mph 28.8 mph N/A   Partly Cloudy
10:35 AM 55.4 °F - 32.0 °F 41% 30.00 in 10.0 mi WSW 25.3 mph 38.0 mph N/A   Partly Cloudy
10:55 AM 57.2 °F - 32.0 °F 38% 29.99 in 10.0 mi SW 21.9 mph 33.4 mph N/A   Clear
11:15 AM 57.2 °F - 32.0 °F 38% 29.99 in 10.0 mi SW 27.6 mph 38.0 mph N/A   Clear
11:35 AM 57.2 °F - 32.0 °F 38% 29.99 in 10.0 mi SW 19.6 mph 32.2 mph N/A   Clear
11:55 AM 57.2 °F - 32.0 °F 38% 29.98 in 10.0 mi SSW 18.4 mph 38.0 mph N/A   Partly Cloudy
12:15 PM 60.8 °F - 32.0 °F 34% 29.96 in 10.0 mi SW 15.0 mph 29.9 mph N/A   Mostly Cloudy
12:35 PM 60.8 °F - 32.0 °F 34% 29.96 in 10.0 mi SW 16.1 mph 27.6 mph N/A   Scattered Clouds
12:55 PM 60.8 °F - 32.0 °F 34% 29.95 in 10.0 mi SW 23.0 mph 32.2 mph N/A   Clear
1:15 PM 62.6 °F - 32.0 °F 32% 29.94 in 10.0 mi West 24.2 mph 41.4 mph N/A   Clear
1:35 PM 64.4 °F - 32.0 °F 30% 29.93 in 10.0 mi SW 26.5 mph 33.4 mph N/A   Mostly Cloudy
1:55 PM 62.6 °F - 32.0 °F 32% 29.92 in 10.0 mi West 18.4 mph 32.2 mph N/A   Mostly Cloudy
2:15 PM 64.4 °F - 33.8 °F 32% 29.91 in 10.0 mi WSW 26.5 mph 40.3 mph N/A   Mostly Cloudy
2:35 PM 66.2 °F - 33.8 °F 30% 29.91 in 10.0 mi WSW 36.8 mph 44.9 mph N/A   Scattered Clouds
2:55 PM 64.4 °F - 35.6 °F 34% 29.90 in 10.0 mi WSW 31.1 mph 44.9 mph N/A   Clear
3:15 PM 66.2 °F - 35.6 °F 32% 29.90 in 10.0 mi WSW 24.2 mph 36.8 mph N/A   Scattered Clouds
3:35 PM 66.2 °F - 35.6 °F 32% 29.90 in 10.0 mi WSW 28.8 mph 46.0 mph N/A   Scattered Clouds
3:55 PM 64.4 °F - 37.4 °F 37% 29.90 in 10.0 mi WSW 23.0 mph 44.9 mph N/A   Mostly Cloudy
4:15 PM 64.4 °F - 37.4 °F 37% 29.89 in 10.0 mi SW 28.8 mph 41.4 mph N/A   Partly Cloudy
4:35 PM 64.4 °F - 39.2 °F 40% 29.90 in 10.0 mi WSW 28.8 mph 50.6 mph N/A   Partly Cloudy
4:55 PM 64.4 °F - 41.0 °F 42% 29.90 in 10.0 mi West 33.4 mph 47.2 mph N/A   Partly Cloudy
5:15 PM 62.6 °F - 42.8 °F 48% 29.91 in 10.0 mi WSW 21.9 mph 32.2 mph N/A   Clear
5:35 PM 62.6 °F - 42.8 °F 48% 29.91 in 10.0 mi WSW 23.0 mph 38.0 mph N/A   Clear
5:55 PM 60.8 °F - 42.8 °F 52% 29.91 in 10.0 mi WSW 24.2 mph 34.5 mph N/A   Clear
6:15 PM 60.8 °F - 42.8 °F 52% 29.92 in 10.0 mi WSW 19.6 mph 28.8 mph N/A   Clear
6:35 PM 60.8 °F - 42.8 °F 52% 29.92 in 10.0 mi WSW 17.3 mph 27.6 mph N/A   Clear
6:55 PM 59.0 °F - 42.8 °F 55% 29.93 in 10.0 mi West 20.7 mph 31.1 mph N/A   Clear
7:15 PM 59.0 °F - 42.8 °F 55% 29.94 in 10.0 mi WSW 15.0 mph 25.3 mph N/A   Clear
7:35 PM 57.2 °F - 42.8 °F 59% 29.95 in 10.0 mi WSW 11.5 mph 23.0 mph N/A   Clear
7:55 PM 57.2 °F - 42.8 °F 59% 29.95 in 10.0 mi WSW 11.5 mph 23.0 mph N/A   Clear
8:15 PM 55.4 °F - 42.8 °F 63% 29.96 in 10.0 mi WSW 10.4 mph - N/A   Clear
8:35 PM 53.6 °F - 42.8 °F 67% 29.96 in 10.0 mi SW 10.4 mph - N/A   Clear
8:55 PM 53.6 °F - 42.8 °F 67% 29.97 in 10.0 mi SW 10.4 mph - N/A   Clear
9:15 PM 53.6 °F - 42.8 °F 67% 29.97 in 10.0 mi SW 6.9 mph - N/A   Clear
9:35 PM 51.8 °F - 42.8 °F 71% 29.98 in 10.0 mi SW 9.2 mph - N/A   Clear
9:55 PM 51.8 °F - 44.6 °F 76% 29.98 in 10.0 mi SW 5.8 mph - N/A   Clear
10:15 PM 50.0 °F - 44.6 °F 82% 29.99 in 10.0 mi SW 5.8 mph - N/A   Clear
10:35 PM 50.0 °F - 44.6 °F 82% 29.99 in 10.0 mi WSW 6.9 mph - N/A   Clear
10:55 PM 50.0 °F - 44.6 °F 82% 29.99 in 10.0 mi WSW 6.9 mph - N/A   Clear
11:15 PM 50.0 °F - 44.6 °F 82% 29.99 in 10.0 mi SW 5.8 mph - N/A   Clear
11:35 PM 48.2 °F - 44.6 °F 87% 29.99 in 10.0 mi WSW 5.8 mph - N/A   Clear
11:55 PM 48.2 °F - 44.6 °F 87% 29.99 in 10.0 mi WSW 8.1 mph - N/A   Clear